Retour au catalogue

STARLINK-30982

ActifCommunicationsVLEO
NORAD 58512·PAYLOAD·🇺🇸 United States

Lancé Dec 7, 2023 depuis Cape Canaveral Space Force Station

Loading…

Prochains Passages (prochaines 24 heures)

TLE

FraisSource: CelesTrak SupGP

Époque: Sep 14, 2026, 22:03 UTC

1 58512C 23191E   26257.91923611 -.00092775  00000+0 -33612-2 0  2576
2 58512  42.9993 115.1326 0001367 273.4816 216.5641 15.27615993    10

Suivez STARLINK-30982 en temps réel avec AllMySat

Download on the App Store